| time (UTC) | temp C | wind direction | speed KPH | gust KPH | rain 1hr cm | rain 24hr cm | rain mn cm | humidity % | barometer mb |
| 20260505093108 | 25 | 270 | 11.3 | 0.0 | 0.00 | 0.00 | 0.00 | 38 | 1015.5 |
| 20260505093034 | 26 | 253 | 11.3 | 0.0 | 0.00 | 0.00 | 0.00 | 41 | 1015.6 |
| 20260505092958 | 26 | 277 | 9.7 | 16.1 | 0.00 | 0.00 | 0.00 | 38 | 1015.1 |
| 20260505092527 | 26 | 272 | 9.7 | 0.0 | 0.00 | 0.00 | 0.00 | 39 | 1015.5 |
| 20260505092030 | 26 | 266 | 8.0 | 0.0 | 0.00 | 0.00 | 0.00 | 40 | 1015.6 |
| 20260505092000 | 26 | 295 | 9.7 | 14.5 | 0.00 | 0.00 | 0.00 | 38 | 1015.3 |
| 20260505091606 | 25 | 297 | 8.0 | 0.0 | 0.00 | 0.00 | 0.00 | 37 | 1015.6 |
| 20260505091545 | 25 | 262 | 8.0 | 0.0 | 0.00 | 0.00 | 0.00 | 37 | 1015.5 |
| 20260505091103 | 25 | 246 | 9.7 | 0.0 | 0.00 | 0.00 | 0.00 | 37 | 1015.6 |
| 20260505090959 | 25 | 286 | 9.7 | 19.3 | 0.00 | 0.00 | 0.00 | 36 | 1015.2 |
| 20260505090531 | 25 | 294 | 8.0 | 0.0 | 0.00 | 0.00 | 0.00 | 38 | 1015.7 |
| 20260505090128 | 25 | 272 | 8.0 | 0.0 | 0.00 | 0.00 | 0.00 | 37 | 1015.7 |
| 20260505090022 | 25 | 231 | 8.0 | 0.0 | 0.00 | 0.00 | 0.00 | 37 | 1015.6 |
| 20260505085958 | 25 | 220 | 6.4 | 14.5 | 0.00 | 0.00 | 0.00 | 39 | 1015.2 |
| 20260505085529 | 25 | 252 | 8.0 | 0.0 | 0.00 | 0.00 | 0.00 | 41 | 1015.7 |
| 20260505085021 | 25 | 249 | 9.7 | 0.0 | 0.00 | 0.00 | 0.00 | 38 | 1015.7 |
| 20260505084959 | 25 | 254 | 11.3 | 19.3 | 0.00 | 0.00 | 0.00 | 38 | 1015.4 |
| 20260505084626 | 24 | 247 | 11.3 | 0.0 | 0.00 | 0.00 | 0.00 | 38 | 1015.8 |
| 20260505084539 | 24 | 268 | 11.3 | 0.0 | 0.00 | 0.00 | 0.00 | 38 | 1015.8 |
| 20260505084031 | 24 | 284 | 11.3 | 0.0 | 0.00 | 0.00 | 0.00 | 37 | 1015.9 |
| 20260505083959 | 24 | 293 | 11.3 | 19.3 | 0.00 | 0.00 | 0.00 | 37 | 1015.5 |
| 20260505083518 | 24 | 269 | 11.3 | 0.0 | 0.00 | 0.00 | 0.00 | 36 | 1015.9 |
| 20260505083112 | 24 | 283 | 11.3 | 0.0 | 0.00 | 0.00 | 0.00 | 36 | 1015.8 |
| 20260505083031 | 24 | 275 | 11.3 | 0.0 | 0.00 | 0.00 | 0.00 | 35 | 1015.9 |
| 20260505082959 | 24 | 273 | 12.9 | 19.3 | 0.00 | 0.00 | 0.00 | 36 | 1015.5 |
| 20260505082526 | 24 | 281 | 11.3 | 0.0 | 0.00 | 0.00 | 0.00 | 37 | 1015.9 |
| 20260505082034 | 24 | 282 | 11.3 | 0.0 | 0.00 | 0.00 | 0.00 | 41 | 1016.0 |
| 20260505081959 | 23 | 293 | 9.7 | 19.3 | 0.00 | 0.00 | 0.00 | 40 | 1015.6 |
| 20260505081629 | 23 | 283 | 12.9 | 0.0 | 0.00 | 0.00 | 0.00 | 41 | 1016.1 |
| 20260505081552 | 23 | 299 | 12.9 | 0.0 | 0.00 | 0.00 | 0.00 | 40 | 1015.9 |
| 20260505081021 | 23 | 284 | 12.9 | 0.0 | 0.00 | 0.00 | 0.00 | 40 | 1015.9 |
| 20260505081000 | 23 | 291 | 12.9 | 19.3 | 0.00 | 0.00 | 0.00 | 41 | 1015.5 |
| 20260505080538 | 23 | 279 | 12.9 | 0.0 | 0.00 | 0.00 | 0.00 | 40 | 1015.9 |
| 20260505080026 | 23 | 287 | 14.5 | 0.0 | 0.00 | 0.00 | 0.00 | 38 | 1016.1 |
| 20260505075959 | 23 | 281 | 14.5 | 19.3 | 0.00 | 0.00 | 0.00 | 40 | 1015.7 |
| 20260505075519 | 23 | 269 | 14.5 | 0.0 | 0.00 | 0.00 | 0.00 | 44 | 1016.1 |
| 20260505075030 | 22 | 290 | 14.5 | 0.0 | 0.00 | 0.00 | 0.00 | 43 | 1016.0 |
| 20260505074553 | 22 | 261 | 14.5 | 0.0 | 0.00 | 0.00 | 0.00 | 44 | 1015.9 |
| 20260505074535 | 22 | 267 | 14.5 | 0.0 | 0.00 | 0.00 | 0.00 | 44 | 1016.0 |
| 20260505074032 | 22 | 285 | 14.5 | 0.0 | 0.00 | 0.00 | 0.00 | 45 | 1016.1 |
| 20260505073958 | 22 | 278 | 16.1 | 19.3 | 0.00 | 0.00 | 0.00 | 44 | 1015.8 |
| 20260505073523 | 22 | 296 | 14.5 | 0.0 | 0.00 | 0.00 | 0.00 | 50 | 1016.2 |
| 20260505073100 | 22 | 275 | 14.5 | 0.0 | 0.00 | 0.00 | 0.00 | 46 | 1016.3 |
| 20260505073029 | 22 | 308 | 14.5 | 0.0 | 0.00 | 0.00 | 0.00 | 46 | 1016.2 |
| 20260505072959 | 22 | 279 | 14.5 | 19.3 | 0.00 | 0.00 | 0.00 | 46 | 1015.9 |
| 20260505072530 | 22 | 276 | 12.9 | 0.0 | 0.00 | 0.00 | 0.00 | 48 | 1016.1 |
| 20260505072023 | 21 | 283 | 11.3 | 0.0 | 0.00 | 0.00 | 0.00 | 51 | 1016.2 |
| 20260505071959 | 21 | 281 | 11.3 | 19.3 | 0.00 | 0.00 | 0.00 | 49 | 1015.9 |
| 20260505071534 | 21 | 273 | 11.3 | 0.0 | 0.00 | 0.00 | 0.00 | 49 | 1016.3 |
| 20260505071513 | 21 | 275 | 11.3 | 0.0 | 0.00 | 0.00 | 0.00 | 49 | 1016.2 |
| 20260505071022 | 21 | 286 | 11.3 | 0.0 | 0.00 | 0.00 | 0.00 | 50 | 1016.3 |
| 20260505070534 | 21 | 305 | 11.3 | 0.0 | 0.00 | 0.00 | 0.00 | 48 | 1016.4 |
| 20260505070042 | 20 | 296 | 9.7 | 0.0 | 0.00 | 0.00 | 0.00 | 53 | 1016.4 |
| 20260505070022 | 20 | 298 | 9.7 | 0.0 | 0.00 | 0.00 | 0.00 | 53 | 1016.4 |
| 20260505070000 | 20 | 292 | 9.7 | 16.1 | 0.00 | 0.00 | 0.00 | 53 | 1016.0 |
| 20260505065601 | 20 | 299 | 12.9 | 0.0 | 0.00 | 0.00 | 0.00 | 56 | 1016.3 |
| 20260505065024 | 19 | 273 | 12.9 | 0.0 | 0.00 | 0.00 | 0.00 | 56 | 1016.3 |
| 20260505065000 | 19 | 274 | 14.5 | 19.3 | 0.00 | 0.00 | 0.00 | 57 | 1016.1 |
| 20260505064614 | 18 | 279 | 11.3 | 0.0 | 0.00 | 0.00 | 0.00 | 59 | 1016.4 |
| 20260505064533 | 19 | 291 | 11.3 | 0.0 | 0.00 | 0.00 | 0.00 | 59 | 1016.3 |
| 20260505064044 | 18 | 286 | 9.7 | 0.0 | 0.00 | 0.00 | 0.00 | 60 | 1016.4 |
| 20260505064000 | 18 | 285 | 11.3 | 16.1 | 0.00 | 0.00 | 0.00 | 59 | 1016.1 |
| 20260505063532 | 18 | 311 | 8.0 | 0.0 | 0.00 | 0.00 | 0.00 | 61 | 1016.2 |
| 20260505063039 | 17 | 294 | 8.0 | 0.0 | 0.00 | 0.00 | 0.00 | 63 | 1016.3 |
| 20260505063006 | 17 | 310 | 6.4 | 0.0 | 0.00 | 0.00 | 0.00 | 62 | 1016.3 |
| 20260505062522 | 17 | 304 | 6.4 | 0.0 | 0.00 | 0.00 | 0.00 | 63 | 1016.4 |
| 20260505062028 | 17 | 284 | 6.4 | 0.0 | 0.00 | 0.00 | 0.00 | 66 | 1016.5 |
| 20260505062000 | 17 | 311 | 3.2 | 12.9 | 0.00 | 0.00 | 0.00 | 66 | 1016.2 |
| 20260505061621 | 16 | 272 | 6.4 | 0.0 | 0.00 | 0.00 | 0.00 | 65 | 1016.6 |
| 20260505061533 | 16 | 278 | 6.4 | 0.0 | 0.00 | 0.00 | 0.00 | 64 | 1016.6 |
| 20260505061043 | 16 | 295 | 4.8 | 0.0 | 0.00 | 0.00 | 0.00 | 65 | 1016.7 |
| 20260505061000 | 16 | 308 | 4.8 | 9.7 | 0.00 | 0.00 | 0.00 | 66 | 1016.4 |
| 20260505060528 | 16 | 315 | 3.2 | 0.0 | 0.00 | 0.00 | 0.00 | 66 | 1016.7 |
| 20260505060110 | 15 | 302 | 4.8 | 0.0 | 0.00 | 0.00 | 0.00 | 66 | 1016.6 |
| 20260505060035 | 16 | 302 | 4.8 | 0.0 | 0.00 | 0.00 | 0.00 | 66 | 1016.7 |
| 20260505060002 | 16 | 304 | 3.2 | 8.0 | 0.00 | 0.00 | 0.00 | 66 | 1016.4 |
| 20260505055529 | 15 | 299 | 4.8 | 0.0 | 0.00 | 0.00 | 0.00 | 65 | 1016.7 |
| 20260505055035 | 15 | 321 | 4.8 | 0.0 | 0.00 | 0.00 | 0.00 | 66 | 1016.7 |
| 20260505054959 | 15 | 324 | 4.8 | 8.0 | 0.00 | 0.00 | 0.00 | 66 | 1016.5 |
| 20260505054600 | 15 | 346 | 4.8 | 0.0 | 0.00 | 0.00 | 0.00 | 67 | 1016.8 |
| 20260505054521 | 15 | 346 | 4.8 | 0.0 | 0.00 | 0.00 | 0.00 | 67 | 1016.8 |
| 20260505054055 | 15 | 360 | 4.8 | 0.0 | 0.00 | 0.00 | 0.00 | 67 | 1016.6 |
| 20260505053959 | 15 | 354 | 4.8 | 8.0 | 0.00 | 0.00 | 0.00 | 67 | 1016.4 |
| 20260505053527 | 15 | 355 | 6.4 | 0.0 | 0.00 | 0.00 | 0.00 | 69 | 1016.7 |
| 20260505053040 | 15 | 348 | 4.8 | 0.0 | 0.00 | 0.00 | 0.00 | 71 | 1016.7 |
| 20260505053026 | 14 | 342 | 4.8 | 0.0 | 0.00 | 0.00 | 0.00 | 72 | 1016.7 |
| 20260505052959 | 14 | 343 | 4.8 | 8.0 | 0.00 | 0.00 | 0.00 | 73 | 1016.3 |
| 20260505052531 | 14 | 344 | 6.4 | 0.0 | 0.00 | 0.00 | 0.00 | 73 | 1016.5 |
| 20260505052023 | 14 | 329 | 6.4 | 0.0 | 0.00 | 0.00 | 0.00 | 74 | 1016.6 |
| 20260505051533 | 13 | 341 | 4.8 | 0.0 | 0.00 | 0.00 | 0.00 | 76 | 1016.6 |
| 20260505051517 | 13 | 345 | 4.8 | 0.0 | 0.00 | 0.00 | 0.00 | 77 | 1016.5 |
| 20260505051019 | 13 | 342 | 4.8 | 0.0 | 0.00 | 0.00 | 0.00 | 79 | 1016.5 |
| 20260505050959 | 13 | 342 | 4.8 | 4.8 | 0.00 | 0.00 | 0.00 | 79 | 1016.1 |
| 20260505050554 | 12 | 336 | 3.2 | 0.0 | 0.00 | 0.00 | 0.00 | 80 | 1016.6 |
| 20260505050113 | 12 | 317 | 1.6 | 0.0 | 0.00 | 0.00 | 0.00 | 82 | 1016.5 |
| 20260505041621 | 8 | 9 | 0.0 | 0.0 | 0.00 | 0.00 | 0.00 | 84 | 1016.5 |
| 20260505041532 | 9 | 9 | 0.0 | 0.0 | 0.00 | 0.00 | 0.00 | 84 | 1016.6 |
| 20260505041042 | 8 | 86 | 0.0 | 0.0 | 0.00 | 0.00 | 0.00 | 83 | 1016.6 |
| 20260505040530 | 8 | 86 | 0.0 | 0.0 | 0.00 | 0.00 | 0.00 | 83 | 1016.5 |
| 20260505040115 | 8 | 76 | 1.6 | 0.0 | 0.00 | 0.00 | 0.00 | 83 | 1016.6 |
| 20260505040020 | 8 | 77 | 1.6 | 0.0 | 0.00 | 0.00 | 0.00 | 83 | 1016.7 |
| 20260505040000 | 8 | 76 | 0.0 | 4.8 | 0.00 | 0.00 | 0.00 | 83 | 1016.3 |
| 20260505035556 | 8 | 76 | 3.2 | 0.0 | 0.00 | 0.00 | 0.00 | 83 | 1016.6 |
| 20260505035032 | 8 | 76 | 3.2 | 0.0 | 0.00 | 0.00 | 0.00 | 82 | 1016.6 |
| 20260505034555 | 8 | 82 | 1.6 | 0.0 | 0.00 | 0.00 | 0.00 | 82 | 1016.6 |
| 20260505034536 | 8 | 82 | 1.6 | 0.0 | 0.00 | 0.00 | 0.00 | 82 | 1016.5 |
| 20260505034034 | 8 | 82 | 3.2 | 0.0 | 0.00 | 0.00 | 0.00 | 82 | 1016.4 |
| 20260505034000 | 8 | 82 | 0.0 | 4.8 | 0.00 | 0.00 | 0.00 | 82 | 1016.2 |
| 20260505033525 | 8 | 82 | 3.2 | 0.0 | 0.00 | 0.00 | 0.00 | 82 | 1016.5 |
| 20260505033104 | 8 | 88 | 1.6 | 0.0 | 0.00 | 0.00 | 0.00 | 81 | 1016.4 |
| 20260505033037 | 9 | 88 | 1.6 | 0.0 | 0.00 | 0.00 | 0.00 | 81 | 1016.5 |
| 20260505032532 | 9 | 105 | 3.2 | 0.0 | 0.00 | 0.00 | 0.00 | 81 | 1016.3 |
| 20260505032020 | 9 | 105 | 3.2 | 0.0 | 0.00 | 0.00 | 0.00 | 80 | 1016.4 |
| 20260505031959 | 9 | 106 | 3.2 | 4.8 | 0.00 | 0.00 | 0.00 | 80 | 1016.1 |
| 20260505031603 | 8 | 237 | 1.6 | 0.0 | 0.00 | 0.00 | 0.00 | 80 | 1016.4 |
| 20260505031533 | 9 | 237 | 1.6 | 0.0 | 0.00 | 0.00 | 0.00 | 80 | 1016.3 |
| 20260505031031 | 9 | 241 | 1.6 | 0.0 | 0.00 | 0.00 | 0.00 | 79 | 1016.4 |
| 20260505031000 | 9 | 241 | 0.0 | 4.8 | 0.00 | 0.00 | 0.00 | 79 | 1016.1 |
| 20260505030521 | 9 | 241 | 3.2 | 0.0 | 0.00 | 0.00 | 0.00 | 78 | 1016.4 |
| 20260505030112 | 8 | 240 | 4.8 | 0.0 | 0.00 | 0.00 | 0.00 | 79 | 1016.4 |
| 20260505030053 | 9 | 240 | 4.8 | 0.0 | 0.00 | 0.00 | 0.00 | 79 | 1016.5 |
| 20260505030000 | 8 | 237 | 3.2 | 4.8 | 0.00 | 0.00 | 0.00 | 79 | 1016.1 |
| 20260505025552 | 9 | 217 | 4.8 | 0.0 | 0.00 | 0.00 | 0.00 | 79 | 1016.4 |
| 20260505025025 | 9 | 200 | 3.2 | 0.0 | 0.00 | 0.00 | 0.00 | 79 | 1016.4 |
| 20260505025000 | 9 | 182 | 4.8 | 4.8 | 0.00 | 0.00 | 0.00 | 79 | 1016.1 |
| 20260505024631 | 8 | 50 | 1.6 | 0.0 | 0.00 | 0.00 | 0.00 | 79 | 1016.4 |
| 20260505024555 | 9 | 50 | 1.6 | 0.0 | 0.00 | 0.00 | 0.00 | 79 | 1016.6 |
| 20260505024032 | 9 | 53 | 0.0 | 0.0 | 0.00 | 0.00 | 0.00 | 79 | 1016.5 |
| 20260505023959 | 9 | 53 | 0.0 | 3.2 | 0.00 | 0.00 | 0.00 | 79 | 1016.3 |
| 20260505023520 | 9 | 53 | 0.0 | 0.0 | 0.00 | 0.00 | 0.00 | 78 | 1016.6 |
| 20260505023118 | 9 | 53 | 1.6 | 0.0 | 0.00 | 0.00 | 0.00 | 78 | 1016.5 |
| 20260505023034 | 10 | 53 | 1.6 | 0.0 | 0.00 | 0.00 | 0.00 | 78 | 1016.6 |
| 20260505023000 | 10 | 53 | 0.0 | 3.2 | 0.00 | 0.00 | 0.00 | 78 | 1016.3 |
| 20260505022526 | 10 | 53 | 3.2 | 0.0 | 0.00 | 0.00 | 0.00 | 78 | 1016.6 |
| 20260505022023 | 10 | 52 | 4.8 | 0.0 | 0.00 | 0.00 | 0.00 | 77 | 1016.5 |
| 20260505022000 | 10 | 52 | 1.6 | 8.0 | 0.00 | 0.00 | 0.00 | 77 | 1016.1 |
| 20260505021627 | 10 | 52 | 4.8 | 0.0 | 0.00 | 0.00 | 0.00 | 76 | 1016.7 |
| 20260505021518 | 10 | 52 | 4.8 | 0.0 | 0.00 | 0.00 | 0.00 | 76 | 1016.6 |
| 20260505021023 | 11 | 40 | 3.2 | 0.0 | 0.00 | 0.00 | 0.00 | 74 | 1016.7 |
| 20260505021000 | 11 | 38 | 4.8 | 4.8 | 0.00 | 0.00 | 0.00 | 74 | 1016.3 |
| 20260505020534 | 11 | 325 | 3.2 | 0.0 | 0.00 | 0.00 | 0.00 | 72 | 1016.5 |
| 20260505020033 | 11 | 324 | 1.6 | 0.0 | 0.00 | 0.00 | 0.00 | 71 | 1016.6 |
| 20260505020002 | 11 | 325 | 1.6 | 0.0 | 0.00 | 0.00 | 0.00 | 71 | 1016.5 |
| 20260505020000 | 11 | 316 | 3.2 | 4.8 | 0.00 | 0.00 | 0.00 | 71 | 1016.4 |
| 20260505015523 | 11 | 263 | 1.6 | 0.0 | 0.00 | 0.00 | 0.00 | 71 | 1016.6 |
| 20260505015033 | 11 | 207 | 4.8 | 0.0 | 0.00 | 0.00 | 0.00 | 71 | 1016.6 |
| 20260505014959 | 11 | 207 | 1.6 | 11.3 | 0.00 | 0.00 | 0.00 | 71 | 1016.3 |
| 20260505014627 | 10 | 221 | 6.4 | 0.0 | 0.00 | 0.00 | 0.00 | 71 | 1016.6 |
| 20260505014526 | 11 | 221 | 6.4 | 0.0 | 0.00 | 0.00 | 0.00 | 71 | 1016.6 |
| 20260505014040 | 10 | 233 | 6.4 | 0.0 | 0.00 | 0.00 | 0.00 | 72 | 1016.5 |
| 20260505013532 | 10 | 232 | 6.4 | 0.0 | 0.00 | 0.00 | 0.00 | 73 | 1016.6 |
| 20260505013131 | 10 | 249 | 8.0 | 0.0 | 0.00 | 0.00 | 0.00 | 74 | 1016.6 |
| 20260505013048 | 10 | 232 | 8.0 | 0.0 | 0.00 | 0.00 | 0.00 | 74 | 1016.6 |
| 20260505013000 | 10 | 233 | 8.0 | 11.3 | 0.00 | 0.00 | 0.00 | 74 | 1016.2 |
| 20260505012543 | 10 | 243 | 6.4 | 0.0 | 0.00 | 0.00 | 0.00 | 75 | 1016.5 |
| 20260505012033 | 10 | 231 | 4.8 | 0.0 | 0.00 | 0.00 | 0.00 | 76 | 1016.6 |
| 20260505012000 | 10 | 234 | 8.0 | 8.0 | 0.00 | 0.00 | 0.00 | 77 | 1016.3 |
| 20260505011623 | 9 | 245 | 4.8 | 0.0 | 0.00 | 0.00 | 0.00 | 78 | 1016.6 |
| 20260505011530 | 9 | 229 | 4.8 | 0.0 | 0.00 | 0.00 | 0.00 | 78 | 1016.6 |
| 20260505011047 | 9 | 227 | 3.2 | 0.0 | 0.00 | 0.00 | 0.00 | 79 | 1016.7 |
| 20260505011000 | 9 | 232 | 3.2 | 4.8 | 0.00 | 0.00 | 0.00 | 79 | 1016.2 |
| 20260505010540 | 9 | 225 | 1.6 | 0.0 | 0.00 | 0.00 | 0.00 | 79 | 1016.7 |
| 20260505010118 | 9 | 225 | 1.6 | 0.0 | 0.00 | 0.00 | 0.00 | 80 | 1016.7 |
| 20260505010052 | 9 | 231 | 1.6 | 0.0 | 0.00 | 0.00 | 0.00 | 80 | 1016.7 |
| 20260505005528 | 9 | 285 | 3.2 | 0.0 | 0.00 | 0.00 | 0.00 | 80 | 1016.4 |
| 20260505005043 | 9 | 285 | 1.6 | 0.0 | 0.00 | 0.00 | 0.00 | 80 | 1016.7 |
| 20260505005000 | 9 | 285 | 3.2 | 4.8 | 0.00 | 0.00 | 0.00 | 80 | 1016.3 |
| 20260505004557 | 9 | 263 | 1.6 | 0.0 | 0.00 | 0.00 | 0.00 | 80 | 1016.6 |
| 20260505004533 | 9 | 263 | 1.6 | 0.0 | 0.00 | 0.00 | 0.00 | 80 | 1016.5 |
| 20260505004026 | 9 | 262 | 3.2 | 0.0 | 0.00 | 0.00 | 0.00 | 79 | 1016.5 |
| 20260505004000 | 9 | 262 | 3.2 | 4.8 | 0.00 | 0.00 | 0.00 | 79 | 1016.2 |
| 20260505003544 | 10 | 262 | 1.6 | 0.0 | 0.00 | 0.00 | 0.00 | 80 | 1016.6 |
| 20260505003102 | 9 | 5 | 1.6 | 0.0 | 0.00 | 0.00 | 0.00 | 79 | 1016.7 |
| 20260505003033 | 10 | 5 | 1.6 | 0.0 | 0.00 | 0.00 | 0.00 | 79 | 1016.7 |
| 20260505003000 | 10 | 5 | 1.6 | 4.8 | 0.00 | 0.00 | 0.00 | 79 | 1016.3 |
| 20260505002530 | 10 | 5 | 3.2 | 0.0 | 0.00 | 0.00 | 0.00 | 79 | 1016.5 |
| 20260505002041 | 10 | 5 | 3.2 | 0.0 | 0.00 | 0.00 | 0.00 | 78 | 1016.5 |
| 20260505002001 | 10 | 5 | 1.6 | 4.8 | 0.00 | 0.00 | 0.00 | 78 | 1016.3 |
| 20260505001612 | 10 | 5 | 3.2 | 0.0 | 0.00 | 0.00 | 0.00 | 78 | 1016.4 |
| 20260505001532 | 10 | 5 | 3.2 | 0.0 | 0.00 | 0.00 | 0.00 | 78 | 1016.6 |
| 20260505001024 | 10 | 5 | 3.2 | 0.0 | 0.00 | 0.00 | 0.00 | 77 | 1016.6 |
| 20260505000531 | 10 | 5 | 3.2 | 0.0 | 0.00 | 0.00 | 0.00 | 76 | 1016.7 |
| 20260505000108 | 10 | 5 | 3.2 | 0.0 | 0.00 | 0.00 | 0.00 | 75 | 1016.8 |
| 20260505000025 | 10 | 5 | 3.2 | 0.0 | 0.00 | 0.00 | 0.00 | 75 | 1016.7 |
| 20260505000000 | 10 | 3 | 4.8 | 4.8 | 0.00 | 0.00 | 0.00 | 75 | 1016.5 |
| 20260504235535 | 10 | 355 | 4.8 | 0.0 | 0.00 | 0.00 | 0.00 | 74 | 1016.7 |
| 20260504235051 | 10 | 249 | 4.8 | 0.0 | 0.00 | 0.00 | 0.00 | 74 | 1016.6 |
| 20260504235001 | 10 | 250 | 3.2 | 8.0 | 0.00 | 0.00 | 0.00 | 74 | 1016.2 |
| 20260504234549 | 10 | 226 | 1.6 | 0.0 | 0.00 | 0.00 | 0.00 | 74 | 1016.5 |
| 20260504234537 | 10 | 225 | 1.6 | 0.0 | 0.00 | 0.00 | 0.00 | 74 | 1016.5 |
| 20260504234033 | 10 | 301 | 0.0 | 0.0 | 0.00 | 0.00 | 0.00 | 74 | 1016.5 |
| 20260504234001 | 10 | 301 | 0.0 | 3.2 | 0.00 | 0.00 | 0.00 | 74 | 1016.2 |
| 20260504233532 | 10 | 301 | 1.6 | 0.0 | 0.00 | 0.00 | 0.00 | 74 | 1016.5 |
| 20260504233057 | 10 | 301 | 3.2 | 0.0 | 0.00 | 0.00 | 0.00 | 73 | 1016.6 |
| 20260504233036 | 10 | 301 | 3.2 | 0.0 | 0.00 | 0.00 | 0.00 | 73 | 1016.8 |
| 20260504232533 | 10 | 301 | 3.2 | 0.0 | 0.00 | 0.00 | 0.00 | 73 | 1016.7 |
| 20260504232048 | 10 | 281 | 6.4 | 0.0 | 0.00 | 0.00 | 0.00 | 73 | 1016.9 |
| 20260504232000 | 10 | 254 | 3.2 | 14.5 | 0.00 | 0.00 | 0.00 | 73 | 1016.6 |
| 20260504231542 | 10 | 232 | 8.0 | 0.0 | 0.00 | 0.00 | 0.00 | 73 | 1016.9 |
| 20260504231517 | 10 | 236 | 8.0 | 0.0 | 0.00 | 0.00 | 0.00 | 74 | 1016.9 |
| 20260504231031 | 10 | 248 | 6.4 | 0.0 | 0.00 | 0.00 | 0.00 | 74 | 1017.1 |
| 20260504231001 | 10 | 239 | 8.0 | 14.5 | 0.00 | 0.00 | 0.00 | 75 | 1016.6 |
| 20260504230550 | 10 | 223 | 6.4 | 0.0 | 0.00 | 0.00 | 0.00 | 76 | 1016.9 |
| 20260504230042 | 9 | 234 | 8.0 | 0.0 | 0.00 | 0.00 | 0.00 | 76 | 1017.0 |
| 20260504230009 | 9 | 232 | 8.0 | 0.0 | 0.00 | 0.00 | 0.00 | 76 | 1017.0 |
| 20260504230001 | 9 | 234 | 6.4 | 11.3 | 0.00 | 0.00 | 0.00 | 76 | 1016.6 |
| 20260504225535 | 9 | 220 | 6.4 | 0.0 | 0.00 | 0.00 | 0.00 | 77 | 1017.0 |
| 20260504225029 | 9 | 207 | 6.4 | 0.0 | 0.00 | 0.00 | 0.00 | 76 | 1016.9 |
| 20260504225001 | 9 | 209 | 4.8 | 9.7 | 0.00 | 0.00 | 0.00 | 76 | 1016.9 |
| 20260504224544 | 10 | 208 | 6.4 | 0.0 | 0.00 | 0.00 | 0.00 | 76 | 1017.2 |
| 20260504224517 | 9 | 206 | 6.4 | 0.0 | 0.00 | 0.00 | 0.00 | 76 | 1017.2 |
| 20260504224033 | 10 | 205 | 4.8 | 0.0 | 0.00 | 0.00 | 0.00 | 75 | 1017.2 |
| 20260504224001 | 10 | 205 | 4.8 | 11.3 | 0.00 | 0.00 | 0.00 | 75 | 1016.8 |
| 20260504223526 | 10 | 149 | 4.8 | 0.0 | 0.00 | 0.00 | 0.00 | 74 | 1017.2 |
| 20260504223039 | 10 | 86 | 4.8 | 0.0 | 0.00 | 0.00 | 0.00 | 74 | 1017.4 |
| 20260504223018 | 10 | 87 | 4.8 | 0.0 | 0.00 | 0.00 | 0.00 | 74 | 1017.4 |
| 20260504223001 | 10 | 79 | 3.2 | 11.3 | 0.00 | 0.00 | 0.00 | 74 | 1017.0 |
| 20260504222527 | 10 | 22 | 1.6 | 0.0 | 0.00 | 0.00 | 0.00 | 74 | 1017.3 |
| 20260504222038 | 11 | 22 | 1.6 | 0.0 | 0.00 | 0.00 | 0.00 | 73 | 1017.3 |
| 20260504222000 | 11 | 22 | 1.6 | 3.2 | 0.00 | 0.00 | 0.00 | 73 | 1017.1 |
| 20260504221556 | 10 | 22 | 1.6 | 0.0 | 0.00 | 0.00 | 0.00 | 72 | 1017.4 |
| 20260504221526 | 11 | 22 | 1.6 | 0.0 | 0.00 | 0.00 | 0.00 | 72 | 1017.4 |
| 20260504221021 | 11 | 22 | 0.0 | 0.0 | 0.00 | 0.00 | 0.00 | 72 | 1017.2 |
| 20260504221001 | 11 | 22 | 0.0 | 0.0 | 0.00 | 0.00 | 0.00 | 72 | 1016.9 |
| 20260504220536 | 11 | 22 | 0.0 | 0.0 | 0.00 | 0.00 | 0.00 | 71 | 1017.2 |
| 20260504220050 | 11 | 22 | 1.6 | 0.0 | 0.00 | 0.00 | 0.00 | 71 | 1017.1 |
| 20260504220028 | 11 | 22 | 1.6 | 0.0 | 0.00 | 0.00 | 0.00 | 71 | 1017.1 |
| 20260504220001 | 11 | 22 | 1.6 | 4.8 | 0.00 | 0.00 | 0.00 | 71 | 1016.9 |
| 20260504215523 | 11 | 22 | 3.2 | 0.0 | 0.00 | 0.00 | 0.00 | 69 | 1017.2 |
| 20260504215037 | 11 | 240 | 4.8 | 0.0 | 0.00 | 0.00 | 0.00 | 68 | 1017.2 |
| 20260504215000 | 11 | 240 | 3.2 | 8.0 | 0.00 | 0.00 | 0.00 | 68 | 1016.9 |
| 20260504214604 | 11 | 240 | 4.8 | 0.0 | 0.00 | 0.00 | 0.00 | 69 | 1017.1 |
| 20260504214529 | 11 | 240 | 4.8 | 0.0 | 0.00 | 0.00 | 0.00 | 70 | 1017.1 |
| 20260504214056 | 11 | 193 | 4.8 | 0.0 | 0.00 | 0.00 | 0.00 | 71 | 1017.2 |
| 20260504214001 | 11 | 193 | 1.6 | 8.0 | 0.00 | 0.00 | 0.00 | 71 | 1016.8 |
| 20260504213531 | 11 | 223 | 4.8 | 0.0 | 0.00 | 0.00 | 0.00 | 71 | 1017.2 |
| 20260504213042 | 11 | 199 | 3.2 | 0.0 | 0.00 | 0.00 | 0.00 | 72 | 1017.2 |
| 20260504213010 | 11 | 198 | 3.2 | 0.0 | 0.00 | 0.00 | 0.00 | 73 | 1017.1 |
| 20260504213001 | 11 | 182 | 1.6 | 4.8 | 0.00 | 0.00 | 0.00 | 73 | 1016.9 |
| 20260504212534 | 11 | 179 | 1.6 | 0.0 | 0.00 | 0.00 | 0.00 | 73 | 1017.2 |
| 20260504212027 | 11 | 179 | 1.6 | 0.0 | 0.00 | 0.00 | 0.00 | 74 | 1017.1 |
| 20260504212001 | 11 | 179 | 0.0 | 4.8 | 0.00 | 0.00 | 0.00 | 74 | 1016.8 |
| 20260504211648 | 11 | 179 | 3.2 | 0.0 | 0.00 | 0.00 | 0.00 | 73 | 1017.0 |
| 20260504211546 | 11 | 179 | 3.2 | 0.0 | 0.00 | 0.00 | 0.00 | 73 | 1017.2 |
| 20260504211038 | 12 | 186 | 3.2 | 0.0 | 0.00 | 0.00 | 0.00 | 73 | 1017.1 |
| 20260504210529 | 12 | 22 | 1.6 | 0.0 | 0.00 | 0.00 | 0.00 | 72 | 1017.0 |
| 20260504210128 | 12 | 13 | 3.2 | 0.0 | 0.00 | 0.00 | 0.00 | 71 | 1017.1 |
| 20260504210024 | 12 | 12 | 3.2 | 0.0 | 0.00 | 0.00 | 0.00 | 71 | 1017.1 |
| 20260504210001 | 12 | 12 | 1.6 | 8.0 | 0.00 | 0.00 | 0.00 | 71 | 1016.7 |
| 20260504205533 | 12 | 12 | 4.8 | 0.0 | 0.00 | 0.00 | 0.00 | 71 | 1017.3 |
| 20260504205025 | 12 | 355 | 6.4 | 0.0 | 0.00 | 0.00 | 0.00 | 69 | 1017.0 |
| 20260504205001 | 12 | 347 | 6.4 | 12.9 | 0.00 | 0.00 | 0.00 | 69 | 1016.7 |
| 20260504204540 | 12 | 299 | 6.4 | 0.0 | 0.00 | 0.00 | 0.00 | 66 | 1017.1 |
| 20260504204501 | 12 | 302 | 6.4 | 0.0 | 0.00 | 0.00 | 0.00 | 66 | 1017.0 |
| 20260504204031 | 12 | 300 | 8.0 | 0.0 | 0.00 | 0.00 | 0.00 | 66 | 1017.0 |
| 20260504204002 | 12 | 312 | 8.0 | 12.9 | 0.00 | 0.00 | 0.00 | 65 | 1016.7 |
| 20260504203523 | 12 | 221 | 8.0 | 0.0 | 0.00 | 0.00 | 0.00 | 65 | 1016.8 |
| 20260504203037 | 12 | 213 | 6.4 | 0.0 | 0.00 | 0.00 | 0.00 | 66 | 1016.8 |
| 20260504203001 | 12 | 203 | 4.8 | 0.0 | 0.00 | 0.00 | 0.00 | 66 | 1016.7 |
| 20260504202529 | 12 | 175 | 3.2 | 0.0 | 0.00 | 0.00 | 0.00 | 67 | 1016.8 |
| 20260504202023 | 12 | 198 | 6.4 | 0.0 | 0.00 | 0.00 | 0.00 | 64 | 1016.8 |
| 20260504202000 | 12 | 199 | 3.2 | 9.7 | 0.00 | 0.00 | 0.00 | 64 | 1016.7 |
| 20260504201539 | 12 | 205 | 6.4 | 0.0 | 0.00 | 0.00 | 0.00 | 63 | 1016.8 |
| 20260504201508 | 12 | 211 | 6.4 | 0.0 | 0.00 | 0.00 | 0.00 | 63 | 1016.9 |
| 20260504201057 | 12 | 205 | 6.4 | 0.0 | 0.00 | 0.00 | 0.00 | 63 | 1016.8 |
| 20260504200529 | 13 | 203 | 4.8 | 0.0 | 0.00 | 0.00 | 0.00 | 63 | 1016.9 |
| 20260504200128 | 12 | 193 | 4.8 | 0.0 | 0.00 | 0.00 | 0.00 | 63 | 1016.8 |
| 20260504200023 | 13 | 192 | 6.4 | 0.0 | 0.00 | 0.00 | 0.00 | 63 | 1016.9 |
| 20260504200001 | 13 | 192 | 4.8 | 9.7 | 0.00 | 0.00 | 0.00 | 63 | 1016.5 |
| 20260504195531 | 13 | 205 | 6.4 | 0.0 | 0.00 | 0.00 | 0.00 | 63 | 1016.9 |
| 20260504195023 | 13 | 200 | 8.0 | 0.0 | 0.00 | 0.00 | 0.00 | 62 | 1016.7 |
| 20260504195002 | 13 | 199 | 9.7 | 11.3 | 0.00 | 0.00 | 0.00 | 62 | 1016.3 |
| 20260504194627 | 13 | 198 | 8.0 | 0.0 | 0.00 | 0.00 | 0.00 | 62 | 1016.8 |
| 20260504194537 | 13 | 197 | 8.0 | 0.0 | 0.00 | 0.00 | 0.00 | 62 | 1016.7 |
| 20260504194025 | 13 | 205 | 8.0 | 0.0 | 0.00 | 0.00 | 0.00 | 63 | 1016.7 |
| 20260504194000 | 13 | 208 | 8.0 | 11.3 | 0.00 | 0.00 | 0.00 | 63 | 1016.4 |
| 20260504193533 | 13 | 229 | 8.0 | 0.0 | 0.00 | 0.00 | 0.00 | 63 | 1016.7 |
| 20260504193116 | 13 | 211 | 8.0 | 0.0 | 0.00 | 0.00 | 0.00 | 63 | 1016.7 |
| 20260504193036 | 13 | 218 | 8.0 | 0.0 | 0.00 | 0.00 | 0.00 | 63 | 1016.7 |
| 20260504193001 | 13 | 210 | 8.0 | 9.7 | 0.00 | 0.00 | 0.00 | 63 | 1016.3 |
| 20260504192527 | 13 | 204 | 8.0 | 0.0 | 0.00 | 0.00 | 0.00 | 64 | 1016.7 |
| 20260504192034 | 13 | 202 | 8.0 | 0.0 | 0.00 | 0.00 | 0.00 | 64 | 1016.6 |
| 20260504192002 | 13 | 204 | 8.0 | 11.3 | 0.00 | 0.00 | 0.00 | 64 | 1016.3 |
| 20260504191603 | 12 | 205 | 8.0 | 0.0 | 0.00 | 0.00 | 0.00 | 64 | 1016.7 |
| 20260504191535 | 13 | 225 | 8.0 | 0.0 | 0.00 | 0.00 | 0.00 | 64 | 1016.6 |
| 20260504191019 | 13 | 205 | 4.8 | 0.0 | 0.00 | 0.00 | 0.00 | 64 | 1016.7 |
| 20260504191002 | 13 | 213 | 8.0 | 11.3 | 0.00 | 0.00 | 0.00 | 64 | 1016.5 |
| 20260504190528 | 13 | 211 | 3.2 | 0.0 | 0.00 | 0.00 | 0.00 | 65 | 1016.7 |
| 20260504190035 | 13 | 173 | 3.2 | 0.0 | 0.00 | 0.00 | 0.00 | 65 | 1016.8 |
| 20260504190007 | 13 | 173 | 4.8 | 0.0 | 0.00 | 0.00 | 0.00 | 65 | 1016.7 |
| 20260504190001 | 13 | 174 | 1.6 | 8.0 | 0.00 | 0.00 | 0.00 | 65 | 1016.4 |
| 20260504185526 | 14 | 200 | 6.4 | 0.0 | 0.00 | 0.00 | 0.00 | 65 | 1016.8 |
| 20260504185026 | 15 | 192 | 6.4 | 0.0 | 0.00 | 0.00 | 0.00 | 64 | 1016.7 |
| 20260504185001 | 15 | 192 | 8.0 | 9.7 | 0.00 | 0.00 | 0.00 | 64 | 1016.4 |
| 20260504184542 | 15 | 191 | 6.4 | 0.0 | 0.00 | 0.00 | 0.00 | 64 | 1016.6 |
| 20260504184521 | 15 | 191 | 6.4 | 0.0 | 0.00 | 0.00 | 0.00 | 64 | 1016.6 |
| 20260504184034 | 16 | 190 | 4.8 | 0.0 | 0.00 | 0.00 | 0.00 | 63 | 1016.6 |
| 20260504184002 | 16 | 190 | 4.8 | 8.0 | 0.00 | 0.00 | 0.00 | 63 | 1016.4 |
| 20260504183527 | 16 | 183 | 4.8 | 0.0 | 0.00 | 0.00 | 0.00 | 62 | 1016.7 |
| 20260504183101 | 16 | 139 | 3.2 | 0.0 | 0.00 | 0.00 | 0.00 | 60 | 1016.6 |
| 20260504183001 | 16 | 139 | 3.2 | 4.8 | 0.00 | 0.00 | 0.00 | 60 | 1016.1 |
| 20260504182529 | 16 | 146 | 3.2 | 0.0 | 0.00 | 0.00 | 0.00 | 59 | 1016.6 |
| 20260504182021 | 17 | 171 | 3.2 | 0.0 | 0.00 | 0.00 | 0.00 | 58 | 1016.5 |
| 20260504182002 | 17 | 171 | 1.6 | 4.8 | 0.00 | 0.00 | 0.00 | 58 | 1016.2 |
| 20260504181540 | 17 | 173 | 1.6 | 0.0 | 0.00 | 0.00 | 0.00 | 57 | 1016.4 |
| 20260504181513 | 17 | 173 | 1.6 | 0.0 | 0.00 | 0.00 | 0.00 | 57 | 1016.4 |
| 20260504181031 | 17 | 60 | 3.2 | 0.0 | 0.00 | 0.00 | 0.00 | 57 | 1016.4 |
| 20260504181001 | 17 | 52 | 0.0 | 9.7 | 0.00 | 0.00 | 0.00 | 56 | 1015.9 |
| 20260504180527 | 18 | 42 | 4.8 | 0.0 | 0.00 | 0.00 | 0.00 | 55 | 1016.2 |
| 20260504180040 | 18 | 33 | 6.4 | 0.0 | 0.00 | 0.00 | 0.00 | 53 | 1016.1 |
| 20260504180016 | 18 | 30 | 6.4 | 0.0 | 0.00 | 0.00 | 0.00 | 53 | 1016.0 |
| 20260504180001 | 18 | 34 | 4.8 | 11.3 | 0.00 | 0.00 | 0.00 | 53 | 1015.7 |
| 20260504175530 | 18 | 54 | 4.8 | 0.0 | 0.00 | 0.00 | 0.00 | 51 | 1015.9 |
| 20260504175023 | 18 | 336 | 6.4 | 0.0 | 0.00 | 0.00 | 0.00 | 47 | 1015.7 |
| 20260504174539 | 18 | 337 | 8.0 | 0.0 | 0.00 | 0.00 | 0.00 | 46 | 1015.8 |
| 20260504174515 | 17 | 349 | 8.0 | 0.0 | 0.00 | 0.00 | 0.00 | 46 | 1015.6 |
| 20260504174028 | 18 | 28 | 6.4 | 0.0 | 0.00 | 0.00 | 0.00 | 52 | 1015.7 |
| 20260504173524 | 18 | 55 | 3.2 | 0.0 | 0.00 | 0.00 | 0.00 | 55 | 1015.6 |
| 20260504173048 | 18 | 72 | 3.2 | 0.0 | 0.00 | 0.00 | 0.00 | 52 | 1015.5 |
| 20260504173033 | 19 | 72 | 3.2 | 0.0 | 0.00 | 0.00 | 0.00 | 50 | 1015.5 |
| 20260504173001 | 19 | 339 | 1.6 | 8.0 | 0.00 | 0.00 | 0.00 | 50 | 1015.1 |
| 20260504172534 | 19 | 273 | 4.8 | 0.0 | 0.00 | 0.00 | 0.00 | 50 | 1015.2 |
| 20260504172027 | 20 | 272 | 4.8 | 0.0 | 0.00 | 0.00 | 0.00 | 51 | 1015.2 |
| 20260504172011 | 20 | 272 | 3.2 | 4.8 | 0.00 | 0.00 | 0.00 | 50 | 1014.8 |
| 20260504171544 | 20 | 273 | 4.8 | 0.0 | 0.00 | 0.00 | 0.00 | 48 | 1015.2 |
| 20260504171524 | 20 | 273 | 4.8 | 0.0 | 0.00 | 0.00 | 0.00 | 48 | 1015.2 |
| 20260504171022 | 20 | 273 | 4.8 | 0.0 | 0.00 | 0.00 | 0.00 | 48 | 1015.2 |
| 20260504171001 | 20 | 272 | 3.2 | 4.8 | 0.00 | 0.00 | 0.00 | 48 | 1014.8 |
| 20260504170529 | 21 | 269 | 6.4 | 0.0 | 0.00 | 0.00 | 0.00 | 47 | 1015.1 |
| 20260504160126 | 22 | 281 | 11.3 | 0.0 | 0.00 | 0.00 | 0.00 | 37 | 1015.0 |
| 20260504151103 | 23 | 272 | 11.3 | 0.0 | 0.00 | 0.00 | 0.00 | 33 | 1015.1 |
| 20260504151002 | 23 | 286 | 9.7 | 19.3 | 0.00 | 0.00 | 0.00 | 36 | 1014.8 |
| 20260504150559 | 23 | 265 | 12.9 | 0.0 | 0.00 | 0.00 | 0.00 | 34 | 1015.1 |
| 20260504150110 | 23 | 253 | 12.9 | 0.0 | 0.00 | 0.00 | 0.00 | 33 | 1015.3 |
| 20260504141028 | 23 | 275 | 12.9 | 0.0 | 0.00 | 0.00 | 0.00 | 32 | 1015.4 |
| 20260504141002 | 23 | 286 | 16.1 | 24.1 | 0.00 | 0.00 | 0.00 | 32 | 1015.1 |
| 20260504140533 | 23 | 304 | 11.3 | 0.0 | 0.00 | 0.00 | 0.00 | 34 | 1015.4 |
| 20260504130534 | 22 | 269 | 9.7 | 0.0 | 0.00 | 0.00 | 0.00 | 28 | 1016.2 |
| 20260504110538 | 20 | 228 | 4.8 | 0.0 | 0.00 | 0.00 | 0.00 | 31 | 1018.1 |
| 20260504100539 | 20 | 291 | 8.0 | 0.0 | 0.00 | 0.00 | 0.00 | 38 | 1018.6 |
| 20260504100150 | 19 | 315 | 8.0 | 0.0 | 0.00 | 0.00 | 0.00 | 38 | 1018.7 |
| 20260504100110 | 19 | 283 | 8.0 | 0.0 | 0.00 | 0.00 | 0.00 | 37 | 1018.7 |